METEOR 1-17 DEB

Satellite information

Favourite Embed

Satellite Type and Status

DEBRISIN ORBIT

Key statistics

Satellite METEOR 1-17 DEB at a glance.

Uptime

18861

Days in orbit

Revolutions

≈ 14.2

Per day

Orbit

LEO

Low Earth Orbit

Inclination

81.2

Latest

Satellite identification and parameters

Extended collection of information and parameters for METEOR 1-17 DEB.

Object identification

Identified? True

Debris? True

Object name: METEOR 1-17 DEB

International designator: 1974-025H

Object number (NORAD): 57542

Object ID (CCSDS): 57542

Country: COMMONWEALTH OF INDEPENDENT STATES (CIS)

Current information (Y/N): Y

RCS size: SMALL

Orbital parameters

Period: 101.399 minutes

Inclination: 81.2085 deg

SMA: 7203.045 km

Apoapsis: 832.363 km

Periapsis: 817.457 km

RAAN: 113.5593 deg

Eccentricy: 0.00103471

Argument of periapsis: 184.4055 deg

Mean anomaly: 175.7032 deg

Mean motion: 14.20131507 rev/day

Mean motion (dot): 0.00008393 rev/day2

B* drag term: 0.003927641 1/REarth

Two-line elements (TLE)

Creation date: Dec. 10, 2025, 7:58 p.m.

Reference frame: TEME

Reference center: EARTH

Epoch: Dec. 10, 2025, 8:03 a.m. UTC

TLE line 0: 0 METEOR 1-17 DEB

TLE line 1: 1 57542U 74025H 25344.33602616 .00008393 00000-0 39276-2 0 9998

TLE line 2: 2 57542 81.2085 113.5593 0010347 184.4055 175.7032 14.20131507130764

Live tracking on map

Real-time ground track for satellite METEOR 1-17 DEB.

In-orbit conjunctions

A list of the most updated potential collisions computed for object METEOR 1-17 DEB.

Target Orbit TCA Probability of collision Miss distance Type
DMSP 5D-2 F11 DEB SSO 2025-11-05 05:22:28 0.0001150045 138.0 (m) DEBRIS
FENGYUN 1C DEB SSO 2025-07-05 18:48:04 0.0001936084 182.0 (m) DEBRIS
CZ-6A DEB SSO 2025-05-12 04:16:35 0.0002175975 75.0 (m) DEBRIS
SL-3 R/B LEO 2025-01-23 22:15:29 0.0001147312 110.0 (m) ROCKET BODY
CZ-6A DEB LEO 2024-11-26 05:42:19 0.0001491223 626.0 (m) DEBRIS

Associated space launch

The Meteor-1 series was the first series of Soviet meteorological satellites.

METEOR 1-17 DEB was lifted into orbit during the mission ‘Vostok 8A92M | Meteor-1 17 (22L)’, on board a Vostok 8A92M space rocket.

The launch took place on April 24, 1974, 11:50 a.m. from 43/4 (43R).

For more information about the launch, click the button.

Launch to space Vostok 8A92M | Meteor-1 17 (22L)
Vostok 8A92M | Meteor-1 17 (22L)

Agency: N/A

Status: Launch Successful

Launch date: April 24, 1974, 11:50 a.m. UTC

Rocket: Vostok 8A92M

Launch pad: 43/4 (43R)

Location: Plesetsk Cosmodrome, Russian Federation

...

Latest news about this satellite

There are no fresh news available about this satellite. Check back as we update our databases every day.


Newsletter sign-up

Weekly statistics, charts and insights to help you stay on top of the space industry.